Location: Hradec Kralove
(50.2170°N, 15.8330°E)
Time: 05:09:57
(UTC+02:00)

Explorer 7 - Pass Details

Date: 30 January 2023
Orbit: 478 x 657 km, 50.3° (Epoch: 25 March)

Event Time Altitude Azimuth Distance (km) Brightness Sun altitude
Rises 17:12:45 0° 280° (W) 2,861 11.6 -4.7°
Reaches altitude 10° 17:15:00 10° 279° (W) 1,984 10.7 -5.0°
Maximum altitude 17:19:35 79° 194° (SSW) 655 7.3 -5.7°
Drops below altitude 10° 17:24:21 10° 108° (ESE) 2,061 9.3 -6.4°
Enters shadow 17:26:11 - 107° (ESE) 2,775 9.9 -6.7°
Sets 17:26:43 0° 107° (ESE) 2,983 - -6.8°
